DateTimeUTC,F1_A11,F1_S11,BsB_S11,BsG_S11,BsR_S11,BbsB_S11,BbsG_S11,BbsR_S11,BaB_A11,BaG_A11,BaR_A11,Tu_S11,T_S11,Uu_S11,U_S11,P_S11,T1_A11
2021-09-13T03:00:00Z,00000200,20000000,,,,,,,0000.12,0000.13,-000.30,18.1,25.2,02.0,01.3,0659.0,31.0
2021-09-13T03:01:00Z,00000200,20000000,,,,,,,-000.26,-000.04,0000.18,18.1,25.2,02.0,01.3,0659.0,31.0
2021-09-13T03:02:00Z,00000200,20000000,,,,,,,-000.37,-000.33,-000.31,18.1,25.2,02.0,01.3,0659.1,31.0
2021-09-13T03:03:00Z,00000200,60000000,,,,,,,0000.93,0000.65,0000.99,18.1,25.2,02.0,01.3,0659.1,31.0
2021-09-13T03:04:00Z,00000200,41000000,0000.60,0000.40,0000.57,0000.09,0000.30,0000.38,-000.33,-000.05,-000.01,18.2,25.1,01.9,01.2,0660.0,31.0
2021-09-13T03:05:00Z,00000200,01000000,0000.63,0000.67,0000.83,0000.51,-000.25,0000.29,0000.84,0000.82,0000.54,18.3,25.0,02.0,01.3,0660.1,31.0
2021-09-13T03:06:00Z,00000200,01000000,0001.18,0000.93,0000.42,-000.47,0000.26,-000.11,0000.96,0000.67,0000.48,18.2,25.0,02.0,01.3,0660.0,31.0
2021-09-13T03:07:00Z,00000200,01000000,0000.59,0000.49,0000.44,0000.08,0000.19,0000.03,0000.83,0000.95,0001.29,18.2,24.9,01.9,01.2,0660.0,31.0
2021-09-13T03:08:00Z,00000200,01000000,0000.88,0000.87,0000.74,0000.42,0000.19,-000.05,0001.06,0001.26,0000.96,18.2,24.9,01.8,01.2,0659.9,31.0
2021-09-13T03:09:00Z,00000200,01000000,0000.48,0001.04,0000.61,0000.11,-000.01,-000.00,0001.19,0001.07,0001.04,18.2,24.9,01.8,01.2,0659.9,31.0
2021-09-13T03:10:00Z,00000200,01000000,0000.41,0000.56,0000.73,-000.05,0000.23,0000.13,0000.70,0001.14,0001.02,18.2,24.9,01.8,01.2,0659.9,31.0
2021-09-13T03:11:00Z,00000200,01000000,0000.54,0000.60,0000.51,0000.51,0000.21,0000.42,0000.73,0000.33,0000.25,18.2,24.9,01.9,01.2,0659.9,31.0
2021-09-13T03:12:00Z,00000200,01000000,0000.40,0000.86,0000.50,0000.23,0000.56,0000.32,0001.09,0001.04,0001.22,18.2,24.9,01.8,01.2,0660.0,31.0
2021-09-13T03:13:00Z,00000200,01000000,0000.58,0001.28,0000.89,-000.02,0000.24,0000.03,0001.50,0001.66,0001.20,18.3,24.9,01.8,01.2,0660.1,31.0
2021-09-13T03:14:00Z,00000200,01000000,0000.42,0000.60,0000.58,-000.19,0000.12,0000.60,0001.10,0000.90,0001.11,18.4,25.0,01.8,01.2,0660.0,31.0
2021-09-13T03:15:00Z,00000200,01000000,0000.44,0000.78,0000.33,0000.10,-000.01,0000.26,0001.00,0000.88,0001.03,18.4,25.0,01.8,01.2,0660.0,31.0
2021-09-13T03:16:00Z,00000200,01000000,0001.35,0000.40,0000.74,0000.59,0000.24,-000.07,0000.97,0000.77,0000.89,18.4,25.0,01.9,01.2,0660.1,31.0
2021-09-13T03:17:00Z,00000200,00000000,0000.67,0000.82,0000.88,-000.05,-000.09,0000.27,0001.16,0001.05,0000.93,18.5,25.0,01.9,01.2,0660.1,31.0
2021-09-13T03:18:00Z,00000200,01000000,0000.95,0000.79,0000.76,0000.25,-000.00,0000.05,0000.13,0000.66,0000.15,18.4,25.0,01.8,01.2,0660.1,31.1
2021-09-13T03:19:00Z,00000200,01000000,0000.02,0000.90,0000.59,0000.04,0000.01,0000.31,0000.92,0000.42,0000.74,18.4,25.0,01.7,01.2,0660.0,31.0
2021-09-13T03:20:00Z,00000200,01000000,-000.02,0000.74,0000.51,-000.13,0000.17,0000.22,0000.74,0001.18,0000.92,18.4,25.0,01.8,01.2,0660.0,31.0
2021-09-13T03:21:00Z,00000200,01000000,0000.14,0000.67,0000.34,0000.28,0000.25,0000.11,0000.31,0000.65,0000.81,18.4,25.0,01.8,01.2,0660.1,31.0
2021-09-13T03:22:00Z,00000200,00000000,0001.08,0000.54,0000.74,-000.47,0000.14,0000.20,0001.48,0000.67,0000.70,18.4,25.0,01.9,01.3,0660.1,31.0
2021-09-13T03:23:00Z,00000200,00000000,-000.16,0000.43,0000.31,-000.15,0000.18,0000.20,0000.30,0000.32,0000.27,18.4,25.0,01.9,01.2,0660.0,31.0
2021-09-13T03:24:00Z,00000200,01000000,0000.41,0000.79,0000.75,0000.65,-000.06,0000.51,0000.59,0000.95,0001.05,18.4,25.0,01.7,01.2,0660.0,31.0
2021-09-13T03:25:00Z,00000200,01000000,0000.94,0000.72,0000.37,-000.10,0000.14,0000.43,0000.36,0000.44,0000.25,18.3,25.0,01.7,01.2,0660.0,31.0
2021-09-13T03:26:00Z,00000200,01000000,0000.50,0000.74,0000.52,0000.67,0000.31,0000.38,0002.20,0001.80,0002.07,18.3,25.0,01.9,01.2,0659.9,31.0
2021-09-13T03:27:00Z,00000200,01000000,0000.98,0000.71,0000.68,-000.42,0000.23,0000.50,0000.41,0000.69,0000.44,18.4,25.0,01.8,01.2,0659.9,31.0
2021-09-13T03:28:00Z,00000200,01000000,0000.86,0000.17,0000.60,-000.49,0000.27,0000.33,0001.28,0001.15,0000.80,18.5,25.0,01.8,01.2,0659.9,31.0
2021-09-13T03:29:00Z,00000200,01000000,0000.78,0000.69,0000.61,0000.13,0000.27,0000.45,0000.34,0000.70,0001.09,18.5,25.1,01.8,01.2,0660.0,31.0
2021-09-13T03:30:00Z,00000200,01000000,0000.90,0000.49,0000.68,-000.38,0000.13,0000.52,0001.42,0000.98,0000.95,18.6,25.1,01.6,01.1,0659.9,31.1
2021-09-13T03:31:00Z,00000200,01000000,0000.66,0000.67,0000.34,-000.41,0000.11,0000.33,0000.48,0000.73,0000.62,18.6,25.1,01.6,01.1,0659.8,31.0
2021-09-13T03:32:00Z,00000200,01000000,0000.64,0000.60,0000.26,-000.22,0000.07,0000.21,0001.04,0000.87,0000.65,18.6,25.1,01.6,01.1,0660.0,31.0
2021-09-13T03:33:00Z,00000200,01000000,0000.79,0001.01,0000.32,-000.34,0000.05,-000.12,0000.11,0000.01,0000.23,18.6,25.1,01.5,01.0,0660.0,31.0
2021-09-13T03:34:00Z,00000200,01000000,-000.62,0000.63,0000.21,0000.07,0000.01,0000.26,-000.02,0000.21,0000.40,18.6,25.0,01.4,01.0,0660.0,31.0
2021-09-13T03:35:00Z,00000200,01000000,0000.17,0000.63,0000.56,0000.11,0000.50,0000.11,0000.57,0000.38,-000.14,18.5,25.1,01.5,01.0,0660.1,31.0
2021-09-13T03:36:00Z,00000200,01000000,0001.08,0000.69,0000.47,0000.44,0000.43,0000.29,0000.84,0000.67,0001.29,18.5,25.0,01.5,01.0,0660.1,31.0
2021-09-13T03:37:00Z,00000200,01000000,0000.28,0000.57,0000.34,0000.65,0000.13,0000.17,0000.27,0000.28,-000.01,18.5,25.0,01.6,01.0,0660.1,31.0
2021-09-13T03:38:00Z,00000200,01000000,0000.33,0000.32,0000.59,-000.02,0000.08,0000.36,0000.40,0000.37,-000.23,18.5,25.0,01.5,01.0,0660.0,31.0
2021-09-13T03:39:00Z,00000200,01000000,-000.28,0000.17,0000.41,0000.26,0000.03,0000.39,0000.05,0000.29,0000.93,18.5,25.0,01.5,01.0,0659.9,31.0
2021-09-13T03:40:00Z,00000200,01000000,0000.28,0000.09,-000.09,0000.06,0000.23,0000.32,0000.60,0000.45,0000.23,18.4,25.0,01.5,01.0,0660.1,31.0
2021-09-13T03:41:00Z,00000200,01000000,0000.34,0000.48,0000.15,-000.25,0000.27,0000.23,-000.11,0000.31,0000.47,18.4,25.0,01.4,00.9,0660.1,31.0
2021-09-13T03:42:00Z,00000200,01000000,0000.57,0000.32,0000.55,0000.47,0000.19,0000.64,0000.72,0000.18,0000.46,18.4,25.0,01.4,00.9,0660.1,31.0
2021-09-13T03:43:00Z,00000200,01000000,0000.49,0000.48,0000.40,-000.02,-000.27,-000.10,0000.47,0000.76,0000.00,18.4,25.0,01.3,00.9,0660.0,31.0
2021-09-13T03:44:00Z,00000200,01000000,-000.05,0000.66,0000.25,-000.09,0000.46,0000.34,0000.35,0000.16,0000.62,18.4,25.0,01.4,01.0,0660.0,31.0
2021-09-13T03:45:00Z,00000200,01000000,-000.60,0000.50,0000.06,-000.14,0000.17,-000.02,0000.07,0000.46,0000.13,18.4,25.0,01.4,00.9,0660.0,31.0
2021-09-13T03:46:00Z,00000200,01000000,-000.26,0000.28,0000.30,0000.18,-000.07,-000.00,0000.39,0000.13,0000.21,18.4,25.0,01.4,00.9,0660.0,31.0
2021-09-13T03:47:00Z,00000200,01000000,0001.21,0000.39,0000.36,-000.12,0000.11,0000.15,0000.27,0000.44,0000.01,18.4,25.0,01.4,00.9,0660.1,31.0
2021-09-13T03:48:00Z,00000200,01000000,-000.27,0000.31,0000.41,-000.28,0000.12,0000.33,0000.56,0000.53,0000.61,18.3,24.9,01.4,00.9,0660.0,31.0
2021-09-13T03:49:00Z,00000200,01000000,0000.00,0000.19,0000.43,-000.36,0000.32,0000.03,0000.79,0000.44,0000.64,18.3,24.9,01.4,00.9,0660.1,31.0
2021-09-13T03:50:00Z,00000200,01000000,0000.29,0000.54,0000.60,0000.06,0000.38,0000.36,0000.52,0000.20,0000.57,18.3,24.9,01.4,00.9,0660.0,31.0
2021-09-13T03:51:00Z,00000200,01000000,-000.39,0000.52,0000.45,0000.35,0000.09,0000.28,0000.53,0001.07,0000.47,18.3,24.9,01.5,01.0,0660.1,31.0
2021-09-13T03:52:00Z,00000200,01000000,0000.47,0000.31,0000.28,0000.36,0000.20,0000.40,0000.41,0000.20,0000.04,18.3,24.9,01.5,01.0,0660.1,31.0
2021-09-13T03:53:00Z,00000200,01000000,0000.30,0000.86,0000.39,-000.33,0000.16,0000.14,0000.09,0000.01,0000.78,18.3,24.9,01.5,01.0,0660.0,31.0
2021-09-13T03:54:00Z,00000200,01000000,0000.05,0000.26,0000.05,-000.52,0000.38,0000.10,0000.71,0000.64,0000.24,18.2,24.9,01.4,01.0,0660.1,31.0
2021-09-13T03:55:00Z,00000200,01000000,0000.48,0000.54,0000.14,-000.02,0000.05,0000.10,0000.37,0000.02,0000.40,18.3,24.9,01.5,01.0,0660.1,31.0
2021-09-13T03:56:00Z,00000200,01000000,-000.53,0000.59,0000.18,0000.62,0000.20,0000.08,0000.22,0000.61,0000.32,18.3,24.9,01.4,00.9,0660.1,31.0
2021-09-13T03:57:00Z,00000200,41000000,,,,,,,0001.37,0001.38,0000.79,18.3,24.9,01.6,01.1,0660.1,31.0
2021-09-13T03:58:00Z,00000200,60000000,,,,,,,-000.67,-000.40,-000.14,18.2,25.1,01.6,01.1,0659.2,31.0
2021-09-13T03:59:00Z,00000200,20000000,,,,,,,-000.12,-000.55,-000.19,18.2,25.2,01.5,01.0,0659.1,31.1
